Simultaneous Nadir Overpasses (SNOs) Predictions

Prediction of SNOs between METOP-B and NOAA-19 Satellite Orbit:

Table of predicted SNOs for the next 14.0 days since TLE Epoch: 12/5/2015
Index Date (METOP-B) Time (METOP-B) Lat,Lon (METOP-B) SZA (METOP-B ) Date (NOAA-19) Time (NOAA-19) Lat,Lon (NOAA-19) SZA (NOAA-19 ) Distance(km) Time Diff (sec)
1 12/07/2015 13:06:53 -75.82, 162.96 81.65 12/07/2015 13:05:43 -75.82, 160.95 81.66 54.69 70
2 12/07/2015 13:57:39 75.53, -30.65 98.05 12/07/2015 13:56:35 75.52, -30.77 98.05 3.63 64
3 12/07/2015 14:48:22 -75.47, 136.52 82.00 12/07/2015 14:47:38 -75.49, 136.57 81.99 2.33 44
4 12/07/2015 15:39:02 75.46, -56.20 97.99 12/07/2015 15:38:36 75.46, -56.08 97.99 3.43 26
5 12/07/2015 16:29:44 -75.45, 111.11 82.02 12/07/2015 16:29:40 -75.47, 111.11 81.99 2.63 4
6 12/07/2015 17:20:24 75.43, -81.61 97.97 12/07/2015 17:20:38 75.44, -81.54 97.99 2.54 14
7 12/07/2015 18:11:06 -75.43, 85.69 82.03 12/07/2015 18:11:41 -75.41, 85.80 82.05 3.50 35
8 12/07/2015 19:01:46 75.41,-107.03 97.96 12/07/2015 19:02:40 75.43,-106.99 97.98 2.39 54
9 12/07/2015 19:52:29 -75.36, 60.14 82.10 12/07/2015 19:53:43 -75.39, 60.35 82.06 7.24 74
10 12/18/2015 02:30:38 -75.60, -38.69 81.11 12/18/2015 02:29:24 -75.63, -39.12 81.09 12.16 74
11 12/18/2015 03:21:19 75.53, 128.41 98.82 12/18/2015 03:20:19 75.55, 128.41 98.84 2.71 60
12 12/18/2015 04:12:01 -75.53, -64.25 81.18 12/18/2015 04:11:24 -75.52, -64.27 81.19 1.40 37
13 12/18/2015 05:02:41 75.50, 102.99 98.79 12/18/2015 05:02:20 75.49, 103.10 98.78 3.26 21
14 12/18/2015 05:53:23 -75.51, -89.66 81.20 12/18/2015 05:53:26 -75.51, -89.73 81.21 1.98 3
15 12/18/2015 06:44:03 75.48, 77.58 98.77 12/18/2015 06:44:22 75.47, 77.64 98.77 1.72 19
16 12/18/2015 07:34:45 -75.48,-115.07 81.22 12/18/2015 07:35:28 -75.49,-115.19 81.22 3.28 43
17 12/18/2015 08:25:25 75.45, 52.17 98.75 12/18/2015 08:26:24 75.46, 52.18 98.75 0.59 59
18 12/18/2015 09:16:14 -75.13,-141.47 81.58 12/18/2015 09:17:24 -75.20,-139.77 81.51 49.07 70




NCC Satellite Simultaneous Nadir Overpasses (SNOs) Prediction Service
